ASIASAT 6

Last updated on Thu Oct 30 2025 00:02:49 GMT+0000 (Coordinated Universal Time)

1 40141U 14052A 25302.53754417 -.00000352 00000+0 00000+0 0 9999 2 40141 0.0148 249.3919 0000734 299.2109 162.9683 1.00271422 40758
UTC large
Height (km)
Speed (km/s)
/
Latitude / Longitude
Inclination (degrees)
Orbital Period (minutes)
Azimuth
Elevation
Range (km)
Doppler Factor

Next 0 passes for location: London (51.5072 / 0.1276)

Sorry there are no passes over London.